Regional Weather Roundup
Issued by NWS

Home | Current Version | Previous Version | Text Only | Print | Product List | Glossary Off
Versions: 1 2 3 4 5 6 7 8 9 10 11 12 13 14 15 16 17 18 19 20 21 22 23 24 25 26 27 28 29 30 31 32 33 34 35 36 37 38 39 40 41 42 43 44 45 46 47 48 49 50

000
ASUS43 KTOP 251108
RWRKS

WEATHER ROUNDUP FOR KANSAS
NATIONAL WEATHER SERVICE GOODLAND KS
500 AM CST TUE NOV 25 2014

NOTE:  "FAIR" INDICATES FEW OR NO CLOUDS BELOW 12,000 FEET WITH NO
SIGNIFICANT WEATHER AND/OR OBSTRUCTIONS TO VISIBILITY.

KSZ001>006-013>018-027>032-041>047-251200-
NORTHWEST KANSAS

CITY           SKY/WX    TMP DP  RH WIND       PRES   REMARKS
GOODLAND       CLEAR     21  15  78 W10       30.17F WCI  10
HAYS           CLEAR     25  16  68 W6        30.20F
HILL CITY      CLEAR     23  19  85 W8        30.19F
RUSSELL        PTCLDY    23  18  81 SW7       30.18F
$$

KSZ061>065-074>080-084>089-251200-
SOUTHWEST KANSAS

CITY           SKY/WX    TMP DP  RH WIND       PRES   REMARKS
DODGE CITY     CLEAR     26  19  74 NW10      30.22S WCI  16
GARDEN CITY    CLEAR     40  17  39 NW8       30.22F
GREAT BEND     MOCLDY    28  19  69 W6        30.23S
LIBERAL        CLEAR     23  16  74 W8        30.27R
PRATT          CLOUDY    32  28  86 NW5       30.23R
$$

KSZ066>073-081>083-090>101-251200-
SOUTHEAST KANSAS

CITY           SKY/WX    TMP DP  RH WIND       PRES   REMARKS
CHANUTE        CLEAR     23  15  71 W5        30.22R
COFFEYVILLE    CLEAR     27  18  69 NW6       30.23S
HUTCHINSON     CLOUDY    21  15  78 NW6       30.22R
MEDICINE LODGE   N/A     29  24  82 N3        30.24R
NEWTON         CLEAR     25  12  58 NW5       30.23R
PARSONS        CLEAR     22  19  89 CALM      30.24R
WICHITA INTL   MOCLDY    28  18  66 N6        30.23R
WICHITA JABRA  CLEAR     27  14  58 NW5       30.22R
WICHITA MCCONL CLEAR     29  14  54 N5        30.23R
WINFIELD       CLEAR     25  20  81 CALM      30.24R
$$

KSZ007>012-019>026-033>040-048>060-102>105-251200-
NORTHEAST KANSAS

CITY           SKY/WX    TMP DP  RH WIND       PRES   REMARKS
CONCORDIA      CLEAR     22  15  75 SW6       30.18F
EMPORIA        CLEAR     21  13  71 W9        30.21R
LAWRENCE       CLEAR     19  12  74 NW5       30.19R
MANHATTAN      CLEAR     18  12  77 CALM      30.22R
MARYSVILLE     CLEAR     19  12  73 W5        30.18S
OLATHE IND     CLEAR     23  11  60 NW9       30.18R
OLATHE EXE     CLEAR     25  10  53 NW9       30.16R
SALINA         CLEAR     24  15  68 W7        30.23R
TOPEKA BILLARD CLEAR     24  12  60 W6        30.20S
TOPEKA FORBES  CLEAR     22  11  62 W7        30.19R
$$


USA.gov is the U.S. government's official web portal to all federal, state and local government web resources and services.